Bangkok (Suvarnabhumi), Thailand

4:11 AM +07 on December 10, 2019 (GMT +0700)
Bangkok (Suvarnabhumi)

Weather History for VTBS - October, 2019

Change the Weather History Date:

Sunday, October 13, 2019

  Actual Average (VTBU) Record (VTBU)
Temperature  
Mean Temperature 84 °F -  
Max Temperature 91 °F 90 °F 93 °F (2008)
Min Temperature 77 °F 74 °F 73 °F (2002)
Cooling Degree Days 19    
Growing Degree Days 34 (Base 50)    
Moisture  
Dew Point 76 °F    
Average Humidity 79    
Maximum Humidity 98    
Minimum Humidity 55    
Precipitation  
Precipitation 0.04 in 0.19 in - ()
Sea Level Pressure  
Sea Level Pressure 29.81 in    
Wind  
Wind Speed 5 mph ()    
Max Wind Speed 12 mph    
Max Gust Speed 17 mph    
Visibility 5.2 miles    
Events Rain , Thunderstorm    
Averages and records for this station are not official NWS values.
T = Trace of Precipitation, MM = Missing Value Source: Averaged Metar Reports

Daily Weather History Graph

Daily Weather History Graph

Search for Another Location

Airport or City:

Astronomy

Oct. 13, 2019 Rise Set
Actual Time 6:06 AM +07 5:58 PM +07
Civil Twilight 5:44 AM +07 6:19 PM +07
Nautical Twilight 5:20 AM +07 6:44 PM +07
Astronomical Twilight 4:55 AM +07 7:09 PM +07
Moon 5:51 PM +07 (10/13) 5:30 AM +07 (10/13)
Length of Visible Light 12h 34m
Length of Day
11h 52m
Full, 100% of the Moon is Illuminated
Oct 13
Full
Oct 14
Full
Oct 21
Last Quarter
Oct 28
New
Nov 4
First Quarter

Hourly Weather History & Observations

Time (+07) Temp. Heat Index Dew Point Humidity Pressure Visibility Wind Dir Wind Speed Gust Speed Precip Events Conditions
12:00 AM 82.4 °F 90.9 °F 77.0 °F 84% 29.86 in 5.6 mi SSE 4.6 mph - N/A   Partly Cloudy
12:30 AM 82.4 °F 90.9 °F 77.0 °F 84% 29.83 in 5.0 mi SE 5.8 mph - N/A   Partly Cloudy
1:00 AM 81 °F - 79 °F 90% 29.82 in 1 mi Calm Calm - -   Mist
1:00 AM 80.6 °F 87.1 °F 77.0 °F 89% 29.83 in 5.0 mi East 4.6 mph - N/A   Partly Cloudy
1:30 AM 80.6 °F 87.1 °F 77.0 °F 89% 29.80 in 5.0 mi ESE 5.8 mph - N/A   Partly Cloudy
2:00 AM 80.6 °F 87.1 °F 77.0 °F 89% 29.80 in 5.0 mi East 3.5 mph - N/A   Partly Cloudy
2:30 AM 80.6 °F 87.1 °F 77.0 °F 89% 29.80 in 4.3 mi East 4.6 mph - N/A   Partly Cloudy
3:00 AM 80.6 °F 87.1 °F 77.0 °F 89% 29.80 in 4.3 mi East 3.5 mph - N/A   Partly Cloudy
3:30 AM 80.6 °F 87.1 °F 77.0 °F 89% 29.80 in 4.3 mi East 5.8 mph - N/A   Partly Cloudy
4:00 AM 80 °F - 78 °F 93% 29.79 in 1 mi Calm Calm - -   Mist
4:00 AM 80.6 °F 87.1 °F 77.0 °F 89% 29.80 in 4.3 mi East 6.9 mph - N/A   Partly Cloudy
4:30 AM 78.8 °F - 77.0 °F 94% 29.80 in 4.3 mi East 6.9 mph - N/A   Partly Cloudy
5:00 AM 78.8 °F - 77.0 °F 94% 29.80 in 4.3 mi East 8.1 mph - N/A   Partly Cloudy
5:30 AM 78.8 °F - 75.2 °F 89% 29.80 in 4.3 mi Variable 5.8 mph - N/A   Partly Cloudy
6:30 AM 78.8 °F - 75.2 °F 89% 29.83 in 4.3 mi Variable 5.8 mph - N/A   Partly Cloudy
7:00 AM 79 °F - 79 °F 98% 29.83 in 1 mi Calm Calm - -   Mist
7:00 AM 80.6 °F 87.1 °F 77.0 °F 89% 29.83 in 5.0 mi East 8.1 mph - N/A   Partly Cloudy
7:30 AM 80.6 °F 87.1 °F 77.0 °F 89% 29.86 in 6.2 mi East 6.9 mph - N/A   Partly Cloudy
8:00 AM 82.4 °F 90.9 °F 77.0 °F 84% 29.86 in 6.2 mi Variable 4.6 mph - N/A   Partly Cloudy
8:30 AM 84.2 °F 94.1 °F 77.0 °F 79% 29.86 in 6.2 mi East 4.6 mph - N/A   Partly Cloudy
9:00 AM 86.0 °F 96.9 °F 77.0 °F 74% 29.86 in 6.2 mi East 3.5 mph - N/A   Partly Cloudy
9:30 AM 86.0 °F 96.9 °F 77.0 °F 74% 29.86 in 6.2 mi East 5.8 mph - N/A   Partly Cloudy
10:00 AM 86.0 °F 95.1 °F 75.2 °F 70% 29.86 in 6.2 mi Variable 4.6 mph - N/A   Partly Cloudy
10:30 AM 87.8 °F 97.6 °F 75.2 °F 66% 29.86 in 6.2 mi Variable 2.3 mph - N/A   Scattered Clouds
11:00 AM 89.6 °F 99.8 °F 75.2 °F 62% 29.86 in 6.2 mi Variable 4.6 mph - N/A   Scattered Clouds
11:30 AM 89.6 °F 99.8 °F 75.2 °F 62% 29.86 in 6.2 mi Variable 5.8 mph - N/A   Scattered Clouds
12:00 PM 91.4 °F 102.5 °F 75.2 °F 59% 29.83 in 6.2 mi Variable 3.5 mph - N/A   Partly Cloudy
12:30 PM 91.4 °F 102.5 °F 75.2 °F 59% 29.83 in 6.2 mi ENE 5.8 mph - N/A   Partly Cloudy
1:00 PM 90 °F - 79 °F 63% 29.80 in 6 mi West 4.6 mph - -   Partly Cloudy
1:30 PM 91.4 °F 100.1 °F 73.4 °F 55% 29.80 in 6.2 mi ESE 5.8 mph - N/A   Partly Cloudy
2:00 PM 91.4 °F 100.1 °F 73.4 °F 55% 29.77 in 6.2 mi East 6.9 mph - N/A   Partly Cloudy
3:00 PM 91.4 °F 100.1 °F 73.4 °F 55% 29.74 in 6.2 mi East 5.8 mph 17.3 mph N/A   Scattered Clouds
3:30 PM 91.4 °F 100.1 °F 73.4 °F 55% 29.74 in 6.2 mi East 5.8 mph - N/A   Scattered Clouds
4:00 PM 91.4 °F 100.1 °F 73.4 °F 55% 29.71 in 6.2 mi East 6.9 mph - N/A   Scattered Clouds
4:30 PM 89.6 °F 102.2 °F 77.0 °F 66% 29.71 in 5.6 mi South 11.5 mph - N/A Rain Light Rain
5:00 PM 87.8 °F 99.7 °F 77.0 °F 70% 29.74 in 6.2 mi SSE 11.5 mph - N/A Rain Light Rain
5:30 PM 87.8 °F 99.7 °F 77.0 °F 70% 29.74 in 6.2 mi South 11.5 mph - N/A   Partly Cloudy
6:00 PM 86.0 °F 99.3 °F 78.8 °F 79% 29.74 in 6.2 mi SSW 9.2 mph - N/A   Scattered Clouds
6:30 PM 86.0 °F 99.3 °F 78.8 °F 79% 29.77 in 5.6 mi South 9.2 mph - N/A Rain , Thunderstorm Light Thunderstorms and Rain
7:00 PM 86 °F - 78 °F 71% 29.78 in 2 mi Calm Calm - -   Mist
7:00 PM 84.2 °F 96.1 °F 78.8 °F 84% 29.80 in 5.6 mi East 9.2 mph - N/A Rain , Thunderstorm Light Thunderstorms and Rain
7:30 PM 82.4 °F 88.2 °F 73.4 °F 74% 29.80 in 6.2 mi WNW 6.9 mph - N/A   Scattered Clouds
8:00 PM 80.6 °F 86.2 °F 75.2 °F 84% 29.80 in 6.2 mi Variable 2.3 mph - N/A   Partly Cloudy
8:30 PM 84.2 °F 94.1 °F 77.0 °F 79% 29.83 in 5.0 mi SE 11.5 mph - N/A Rain , Thunderstorm Light Thunderstorms and Rain
9:00 PM 78.8 °F - 77.0 °F 94% 29.86 in 5.0 mi SSW 9.2 mph - N/A Rain , Thunderstorm Light Thunderstorms and Rain
9:30 PM 78.8 °F - 75.2 °F 89% 29.86 in 5.6 mi South 5.8 mph - N/A Rain Light Rain
10:00 PM 81 °F - 78 °F 88% 29.87 in 2 mi Calm Calm - -   Partly Cloudy
10:00 PM 80.6 °F 86.2 °F 75.2 °F 84% 29.86 in 5.6 mi SE 4.6 mph - N/A Rain Light Rain
10:30 PM 80.6 °F 86.2 °F 75.2 °F 84% 29.86 in 6.2 mi Variable 2.3 mph - N/A   Partly Cloudy
11:00 PM 78.8 °F - 75.2 °F 89% 29.86 in 6.2 mi West 4.6 mph - N/A   Partly Cloudy
11:30 PM 78.8 °F - 75.2 °F 89% 29.86 in 6.2 mi NNW 2.3 mph - N/A   Partly Cloudy